When you browse on this site, cookies collect data to enhance your experience and personalize the content and advertising you see.
Visit our Privacy Policy to learn more. By continuing to use the site, you agree to this use of cookies and data.
  • Em Portugal
  • Lista de países
  • Para 7 dias
  • Temperatura da água
  • Mapas de satélite
  • Mapa do tempo
  • Widgets de tempo
  • user-avatar
    Iniciar Sessão

    Previsão horária em Balchik

    Hoje, 22 Abril, Segunda-feira

    Tempo Temperatura Precipitação Vento Pressão Humidade
    00:00 +5°C° 0 mm 2 m/s 743 mmHg 73%
    01:00 +4°C° 0 mm 2 m/s 743 mmHg 73%
    02:00 +4°C° 0 mm 2 m/s 743 mmHg 69%
    03:00 +4°C° 0 mm 2 m/s 743 mmHg 70%
    04:00 +4°C° 0 mm 2 m/s 743 mmHg 72%
    05:00 +3°C° 0 mm 2 m/s 743 mmHg 73%
    06:00 +4°C° 0 mm 3 m/s 743 mmHg 70%
    07:00 +7°C° 0 mm 3 m/s 743 mmHg 67%
    08:00 +7°C° 0 mm 4 m/s 743 mmHg 63%
    09:00 +8°C° 0 mm 4 m/s 744 mmHg 61%
    10:00 +8°C° 0 mm 4 m/s 744 mmHg 59%
    11:00 +10°C° 0 mm 4 m/s 744 mmHg 57%
    12:00 +11°C° 0 mm 4 m/s 744 mmHg 55%
    13:00 +10°C° 0 mm 5 m/s 744 mmHg 52%
    14:00 +12°C° 0 mm 5 m/s 744 mmHg 49%
    15:00 +10°C° 0 mm 5 m/s 744 mmHg 49%
    16:00 +10°C° 0 mm 5 m/s 744 mmHg 50%
    17:00 +9°C° 0 mm 5 m/s 744 mmHg 50%
    18:00 +7°C° 0 mm 4 m/s 744 mmHg 55%
    19:00 +6°C° 0 mm 4 m/s 744 mmHg 61%
    20:00 +4°C° 0 mm 3 m/s 744 mmHg 66%
    21:00 +4°C° 0 mm 3 m/s 744 mmHg 68%
    22:00 +4°C° 0 mm 3 m/s 745 mmHg 69%
    23:00 +3°C° 0 mm 3 m/s 745 mmHg 71%

    Amanhã, 23 Abril, Terça-feira

    Tempo Temperatura Precipitação Vento Pressão Humidade
    00:00 +3°C° 0 mm 3 m/s 745 mmHg 73%
    01:00 +3°C° 0 mm 3 m/s 745 mmHg 75%
    02:00 +4°C° 0 mm 2 m/s 745 mmHg 77%
    03:00 +3°C° 0 mm 3 m/s 745 mmHg 79%
    04:00 +3°C° 0 mm 3 m/s 745 mmHg 81%
    05:00 +3°C° 0 mm 3 m/s 745 mmHg 82%
    06:00 +4°C° 0 mm 3 m/s 746 mmHg 77%
    07:00 +6°C° 0 mm 4 m/s 746 mmHg 71%
    08:00 +8°C° 0 mm 4 m/s 746 mmHg 66%
    09:00 +9°C° 0 mm 5 m/s 747 mmHg 62%
    10:00 +10°C° 0 mm 5 m/s 747 mmHg 58%
    11:00 +12°C° 0 mm 5 m/s 747 mmHg 54%
    12:00 +12°C° 0 mm 5 m/s 747 mmHg 53%
    13:00 +13°C° 0 mm 5 m/s 747 mmHg 53%
    14:00 +13°C° 0 mm 5 m/s 747 mmHg 52%
    15:00 +12°C° 0 mm 5 m/s 747 mmHg 54%
    16:00 +12°C° 0 mm 5 m/s 746 mmHg 57%
    17:00 +10°C° 0 mm 5 m/s 746 mmHg 59%
    18:00 +9°C° 0 mm 5 m/s 746 mmHg 62%
    19:00 +8°C° 0 mm 4 m/s 746 mmHg 66%
    20:00 +7°C° 0 mm 4 m/s 746 mmHg 69%
    21:00 +7°C° 0.1 mm 4 m/s 746 mmHg 71%
    22:00 +7°C° 0.1 mm 5 m/s 746 mmHg 72%
    23:00 +7°C° 0.1 mm 5 m/s 746 mmHg 74%

    Depois de amanhã, 24 Abril, Quarta-feira

    Tempo Temperatura Precipitação Vento Pressão Humidade
    00:00 +7°C° 0 mm 5 m/s 746 mmHg 77%
    01:00 +7°C° 0 mm 5 m/s 746 mmHg 79%
    02:00 +7°C° 0 mm 5 m/s 746 mmHg 82%
    03:00 +7°C° 0.3 mm 5 m/s 746 mmHg 85%
    04:00 +6°C° 0.3 mm 5 m/s 746 mmHg 88%
    05:00 +6°C° 0.3 mm 4 m/s 746 mmHg 91%
    06:00 +6°C° 0.4 mm 4 m/s 746 mmHg 90%
    07:00 +7°C° 0.4 mm 5 m/s 746 mmHg 90%
    08:00 +7°C° 0.4 mm 5 m/s 747 mmHg 89%
    09:00 +8°C° 0 mm 5 m/s 747 mmHg 84%
    10:00 +10°C° 0 mm 5 m/s 747 mmHg 79%
    11:00 +12°C° 0 mm 5 m/s 747 mmHg 74%
    12:00 +12°C° 0 mm 4 m/s 747 mmHg 72%
    13:00 +13°C° 0 mm 4 m/s 747 mmHg 70%
    14:00 +13°C° 0 mm 4 m/s 747 mmHg 68%
    15:00 +13°C° 0 mm 4 m/s 747 mmHg 70%
    16:00 +12°C° 0 mm 4 m/s 746 mmHg 72%
    17:00 +12°C° 0 mm 4 m/s 746 mmHg 73%
    18:00 +10°C° 0 mm 3 m/s 746 mmHg 79%
    19:00 +8°C° 0 mm 3 m/s 746 mmHg 86%
    20:00 +7°C° 0 mm 3 m/s 746 mmHg 92%
    21:00 +6°C° 0 mm 2 m/s 747 mmHg 93%
    22:00 +6°C° 0 mm 2 m/s 747 mmHg 93%
    23:00 +6°C° 0 mm 2 m/s 747 mmHg 94%

    25 Abril, Quinta-feira

    Tempo Temperatura Precipitação Vento Pressão Humidade
    00:00 +6°C° 0 mm 2 m/s 747 mmHg 94%
    01:00 +6°C° 0 mm 2 m/s 747 mmHg 94%
    02:00 +6°C° 0 mm 2 m/s 747 mmHg 94%
    03:00 +6°C° 0 mm 2 m/s 747 mmHg 94%
    04:00 +6°C° 0 mm 2 m/s 747 mmHg 93%
    05:00 +5°C° 0 mm 2 m/s 746 mmHg 93%
    06:00 +7°C° 0 mm 2 m/s 747 mmHg 88%
    07:00 +9°C° 0 mm 3 m/s 747 mmHg 83%
    08:00 +11°C° 0 mm 3 m/s 747 mmHg 78%
    09:00 +12°C° 0 mm 3 m/s 747 mmHg 72%
    10:00 +14°C° 0 mm 3 m/s 748 mmHg 67%
    11:00 +15°C° 0 mm 4 m/s 748 mmHg 62%
    12:00 +15°C° 0 mm 4 m/s 747 mmHg 62%
    13:00 +17°C° 0 mm 4 m/s 747 mmHg 61%
    14:00 +17°C° 0 mm 4 m/s 747 mmHg 60%
    15:00 +15°C° 0 mm 4 m/s 746 mmHg 64%
    16:00 +14°C° 0 mm 4 m/s 746 mmHg 67%
    17:00 +13°C° 0 mm 4 m/s 746 mmHg 70%
    18:00 +11°C° 0 mm 4 m/s 746 mmHg 78%
    19:00 +9°C° 0 mm 3 m/s 746 mmHg 85%
    20:00 +8°C° 0 mm 3 m/s 746 mmHg 92%
    21:00 +7°C° 0 mm 3 m/s 746 mmHg 92%
    22:00 +7°C° 0 mm 2 m/s 746 mmHg 92%
    23:00 +7°C° 0 mm 2 m/s 746 mmHg 92%

    26 Abril, Sexta-feira

    Tempo Temperatura Precipitação Vento Pressão Humidade
    00:00 +7°C° 0 mm 2 m/s 745 mmHg 91%
    01:00 +6°C° 0 mm 2 m/s 745 mmHg 90%
    02:00 +6°C° 0 mm 2 m/s 745 mmHg 90%
    03:00 +6°C° 0 mm 2 m/s 745 mmHg 90%
    04:00 +6°C° 0 mm 2 m/s 745 mmHg 90%
    05:00 +6°C° 0 mm 2 m/s 744 mmHg 90%
    06:00 +8°C° 0 mm 3 m/s 745 mmHg 83%
    07:00 +10°C° 0 mm 3 m/s 745 mmHg 76%
    08:00 +12°C° 0 mm 4 m/s 745 mmHg 69%
    09:00 +13°C° 0 mm 4 m/s 745 mmHg 65%
    10:00 +14°C° 0 mm 5 m/s 745 mmHg 61%
    11:00 +15°C° 0 mm 5 m/s 745 mmHg 58%
    12:00 +16°C° 0 mm 5 m/s 745 mmHg 57%
    13:00 +16°C° 0 mm 5 m/s 745 mmHg 56%
    14:00 +16°C° 0 mm 5 m/s 744 mmHg 55%
    15:00 +17°C° 0 mm 4 m/s 744 mmHg 57%
    16:00 +15°C° 0 mm 4 m/s 744 mmHg 59%
    17:00 +15°C° 0 mm 4 m/s 743 mmHg 61%
    18:00 +13°C° 0 mm 3 m/s 743 mmHg 67%
    19:00 +11°C° 0 mm 3 m/s 743 mmHg 74%
    20:00 +9°C° 0 mm 2 m/s 743 mmHg 80%
    21:00 +8°C° 0 mm 2 m/s 743 mmHg 81%
    22:00 +8°C° 0 mm 2 m/s 743 mmHg 82%
    23:00 +8°C° 0 mm 2 m/s 743 mmHg 82%

    27 Abril, Sábado

    Tempo Temperatura Precipitação Vento Pressão Humidade
    00:00 +7°C° 0 mm 2 m/s 743 mmHg 84%
    01:00 +7°C° 0 mm 2 m/s 742 mmHg 85%
    02:00 +7°C° 0 mm 2 m/s 742 mmHg 86%
    03:00 +7°C° 0 mm 2 m/s 742 mmHg 88%
    04:00 +7°C° 0 mm 2 m/s 742 mmHg 89%
    05:00 +7°C° 0 mm 2 m/s 741 mmHg 90%
    06:00 +9°C° 0 mm 3 m/s 742 mmHg 86%
    07:00 +11°C° 0 mm 3 m/s 742 mmHg 81%
    08:00 +12°C° 0 mm 4 m/s 742 mmHg 76%
    09:00 +14°C° 0 mm 4 m/s 742 mmHg 72%
    10:00 +15°C° 0 mm 4 m/s 742 mmHg 67%
    11:00 +16°C° 0 mm 5 m/s 742 mmHg 62%
    12:00 +16°C° 0 mm 5 m/s 741 mmHg 60%
    13:00 +16°C° 0 mm 5 m/s 741 mmHg 58%
    14:00 +16°C° 0 mm 5 m/s 740 mmHg 56%
    15:00 +15°C° 0 mm 4 m/s 740 mmHg 58%
    16:00 +15°C° 0 mm 4 m/s 740 mmHg 60%
    17:00 +14°C° 0 mm 4 m/s 740 mmHg 62%
    18:00 +12°C° 0 mm 3 m/s 740 mmHg 69%
    19:00 +10°C° 0 mm 3 m/s 740 mmHg 77%
    20:00 +8°C° 0 mm 3 m/s 740 mmHg 85%
    21:00 +7°C° 0 mm 2 m/s 740 mmHg 85%
    22:00 +7°C° 0 mm 2 m/s 740 mmHg 85%
    23:00 +7°C° 0 mm 2 m/s 739 mmHg 85%
    Mostrar mais